Regional Weather Roundup
Issued by NWS Grand Forks, ND

Home | Current Version | Previous Version | Text Only | Print | Product List | Glossary Off
Versions: 1 2 3 4 5 6 7 8 9 10 11 12 13 14 15 16 17 18 19 20 21 22 23 24 25 26 27 28 29 30 31 32 33 34 35 36 37 38 39 40 41 42 43 44 45 46 47 48 49 50

000
ASUS43 KFGF 230910
RWRFGF
PRAIRIE TO PINES  WEATHER ROUNDUP
NATIONAL WEATHER SERVICE EASTERN NORTH DAKOTA/GRAND FORKS ND
400 AM CDT WED AUG 23 2017

 **SATELLITE DATA USED TO AUGMENT SKY COVER AT AUTOMATED STATIONS**
 *****  WEATHER ACROSS EASTERN NORTH DAKOTA  *****

CITY           SKY/WX    TMP DP  RH WIND       PRES   REMARKS
GRAND FORKS    FAIR      47  45  93 W3        30.09R
GRAND FRKS AFB FAIR      46  44  95 CALM      30.09S
DEVILS LAKE    MOCLDY    54  49  83 SE6       30.10F
FARGO          FAIR      50  46  86 W3        30.10S
WAHPETON ARPT  FAIR      46  43  87 W3        30.11S
$$

 ***** WEATHER ACROSS CENTRAL AND WESTERN NORTH DAKOTA  *****

CITY           SKY/WX    TMP DP  RH WIND       PRES   REMARKS
BISMARCK       FAIR      50  48  93 CALM      30.11F
MINOT          FAIR      56  45  66 E3        30.05F
JAMESTOWN      FAIR      48  46  93 CALM      30.10F
MINOT AFB      MOCLDY    54  45  71 S5        30.04F
GARRISON         N/A     54  46  74 SW3       30.08F
WILLISTON      FAIR      58  42  55 SW6       30.06S
DICKINSON      FAIR      52  41  66 S9        30.09F
HETTINGER      FAIR      55  43  63 E10       30.13S
$$

 *****  OTHER AIRPORT OBSERVATIONS IN OUR AREA  *****

CITY           SKY/WX    TMP DP  RH WIND       PRES   REMARKS
WALHALLA       FAIR      48  48 100 CALM      30.09S
GRAFTON AIRPOR FAIR      50  50 100 W3        30.10F
VALLEY CITY AR   N/A     46  46 100 CALM      30.13S
CANDO          PTSUNNY   48  48 100 E7        30.11F
CAVALIER APRT  FAIR      48  46  93 CALM      30.09R
GWINNER        SUNNY     50  48  93 CALM      30.12S
SHEYENNE NWR     N/A     48  47  95 CALM      29.95S
ROLLA          FAIR      48  45  87 SW3       30.10S
 ***** THE ABOVE OBSERVATIONS ARE NON NWS ARE NOT QUALITY
       CONTROLLED AND MAY MIS-REPORT RAIN FOR SNOW...
$$

  *****  WEATHER ACROSS NORTHERN MINNESOTA  *****

CITY           SKY/WX    TMP DP  RH WIND       PRES   REMARKS
FLAG ISLAND      N/A     55  52  88 CALM      30.06R
WARROAD        FAIR      48  46  93 W6        30.08S FOG
ROSEAU         HAZE      48  43  81 CALM      30.08S VSB 1/4
HALLOCK        FAIR      45  43  93 CALM      30.08S FOG
THF RVR FALLS  FAIR      47  45  93 N3        30.10R
BAUDETTE       FAIR      47  46  97 W6        30.07R
WASKISH        FAIR      48  48 100 CALM      30.07S
CROOKSTON      FAIR      46  43  87 CALM      30.10S
STEPHEN NDAWN    N/A     43  39  87 SE1         N/A
GREENBUSH NDAW   N/A     43  43 100 SW2         N/A
$$
  *****  WEATHER ACROSS CENTRAL AND WEST MINNESOTA  *****

CITY           SKY/WX    TMP DP  RH WIND       PRES   REMARKS
FOSSTON        FAIR      43  39  87 CALM      30.10S
BEMIDJI        FAIR      43  43 100 W3        30.08S
PARK RAPIDS    FAIR      47  44  90 W3        30.09S
ELBOW LAKE     FAIR      49  47  94 SW5       30.11S
WADENA         FAIR      46  45  93 CALM      30.09S
DETROIT LAKES  FAIR      54  48  82 CALM      30.11S
MOORHEAD       FAIR      50  45  81 CALM      30.11S
FERGUS FALLS   FAIR      50  48  93 CALM      30.11S
MORRIS MN      FAIR      48  48 100 W3        30.10S
STAPLES        FAIR      48  45  87 CALM      30.09S
$$
  *****  WEATHER ELSEWHERE ACROSS MINNESOTA  *****

CITY           SKY/WX    TMP DP  RH WIND       PRES   REMARKS
DULUTH         FAIR      50  49  96 N6        30.02S
INTRNTL FALLS  CLOUDY    51  49  92 CALM      30.05R
ELY            FAIR      48  48 100 CALM      30.02S
CLOQUET        FAIR      52  46  82 W6        30.04S
WHEATON        FAIR      52  46  82 W5        30.13S
BRAINERD       FAIR      48  47  96 CALM      30.08R
HIBBING        FAIR      44  44 100 NW5       30.05R
ALEXANDRIA     NOT AVBL
SAINT CLOUD    FAIR      52  48  86 NW5       30.08S
MINNEAPOLIS    FAIR      60  49  66 CALM      30.07S
$$

  *****  WEATHER ACROSS SOUTH DAKOTA  *****

CITY           SKY/WX    TMP DP  RH WIND       PRES   REMARKS
SIOUX FALLS    FAIR      52  52 100 CALM      30.15S
BROOKINGS      FAIR      52  49  89 CALM      30.16R
WATERTOWN      FAIR      50  49  96 S3        30.14S
HURON          MOCLDY    54  52  93 CALM      30.14S
SISSETON         N/A     50  46  86 CALM      30.11R
ABERDEEN       FAIR      48  47  96 CALM      30.14S
MITCHELL       FAIR      55  52  89 S6        30.14S
PIERRE         FAIR      58  51  78 E10       30.08F
MOBRIDGE       FAIR      54  47  77 E8        30.10S
RAPID CITY     FAIR      53  46  77 CALM      30.07F
$$

  *****  SOME WEATHER IN NEARBY STATES *****

CITY           SKY/WX    TMP DP  RH WIND       PRES   REMARKS
GLASGOW MT     FAIR      61  35  37 E12       30.02F
GREAT FALLS MT FAIR      59  33  37 SW10      30.02F
CHEYENNE WY    FAIR      56  45  66 W13       30.23F
SCOTTSBLUFF NE FAIR      59  53  80 E8        30.14S
OMAHA NE       FAIR      59  54  83 CALM      30.17S
DES MOINES IA  FAIR      57  53  86 W3        30.14S
DAVENPORT IA   FAIR      52  50  93 W6        30.10S
CHICAGO IL     FAIR      62  50  64 NW9       30.01S
EAU CLAIRE WI  FAIR      53  49  86 CALM      30.04R
LA CROSSE WI   FAIR      57  51  80 CALM      30.05R
$$

  *****  SOME NATIONAL WEATHER *****

CITY           SKY/WX    TMP DP  RH WIND       PRES   REMARKS
LA GUARDIA NY  CLOUDY    74  73  97 SW9       29.75R
RALEIGH NC     FAIR      76  73  91 SW8       29.89F
ATLANTA GA     MOCLDY    76  71  85 W5        29.98S
NEW ORLEANS LA MOCLDY    80  77  90 VRB5      29.98F
OKLAHOMA CITY  MOCLDY    71  71 100 CALM      30.08S
ALBUQUERQUE NM MOCLDY    67  60  78 N12       30.29F
SALT LAKE CITY MOCLDY    73  52  47 SE8       30.14S
LOS ANGELES CA MOCLDY    68  64  87 W3        29.98S
BOISE ID       FAIR      70  42  36 CALM      29.99F
SEATTLE WA     FAIR      60  57  89 S3        30.06S
$$

*** WEATHER ACROSS MANITOBA...SASKATCHEWAN AND ONTARIO ***
                ***ONTARIO***

CITY           SKY/WX    TMP DP  RH WIND       PRES   REMARKS
GERALDTON      CLOUDY    48  45  87 NW12G20   29.84R
THUNDER BAY    CLEAR     48  45  87 W6        29.94R
SIOUX LOOKOUT  CLEAR     37  36  93 N2        30.03R
TORONTO        CLEAR     57  52  82 W12       29.81R
BIG TROUT LK   CLEAR     37  34  87 N6        30.03R
PICKLE LAKE    NOT AVBL
DRYDEN         CLEAR     48  46  93 NW5       30.05R
KENORA         PTCLDY    50  46  87 N3        30.07R
$$
                *** MANITOBA***

CITY           SKY/WX    TMP DP  RH WIND       PRES   REMARKS
BRANDON        MOCLDY    57  50  77 SE3       30.07S
DAUPHIN        CLOUDY    55  54  94 VRB2      30.06R
ISLAND LAKE    NOT AVBL
PILOT MOUND      N/A     50  46  87 S5          N/A
THE PAS        CLOUDY    57  52  82 E12       30.05S
THOMPSON       NOT AVBL
WINNIPEG       MOCLDY    45  45 100 W5        30.08S
LYNN LAKE      CLEAR     46  45  93 SE2       30.10S
CHURCHILL      CLEAR     45  39  81 W7        30.09S
GILLAM         CLEAR     36  34  93 SE2       30.10S
$$
                ***SASKATCHEWAN***

CITY           SKY/WX    TMP DP  RH WIND       PRES   REMARKS
ESTEVAN        PTCLDY    50  43  76 S3        30.03F
KINDERSLEY     CLEAR     57  50  77 E8        29.99S
LLOYDMINSTER   CLEAR     54  52  94 SE2       30.01R
PRINCE ALBERT  PTCLDY    50  48  93 NE2       30.03R
REGINA         CLEAR     54  41  62 SE9       29.99F
YORKTON        CLOUDY    57  48  72 S5        30.00S
N. BATTLEFORD  CLEAR     50  48  93 NE7       30.02S
LA RONGE       CLEAR     55  48  76 E6        30.03S SMOKE
SASKATOON      PTCLDY    55  50  82 W2        30.01R
SWIFT CURRENT  CLEAR     61  41  48 S10       29.99F
$$
NOTE: THESE ARE AUTOMATED STATIONS WITH LIMITED QUALITY CONTROL
      "FAIR" INDICATES FEW OR NO CLOUDS BELOW 12,000 FEET WITH NO
      SIGNIFICANT WEATHER AND/OR OBSTRUCTIONS TO VISIBILITY.
      SKY/WX - SKY CONDITION AND SIGNIFICANT WEATHER.
      TMP - AIR TEMPERATURE.    DP   - DEWPOINT TEMPERATURE.
      RH  - RELATIVE HUMIDITY.  PRES - PRESSURE.
      HX  - HEAT INDEX.         WCI  - WIND CHILL INDEX.
$



USA.gov is the U.S. government's official web portal to all federal, state and local government web resources and services.